Regional Weather Roundup
Issued by NWS

Home | Current Version | Previous Version | Text Only | Print | Product List | Glossary On
Versions: 1 2 3 4 5 6 7 8 9 10 11 12 13 14 15 16 17 18 19 20 21 22 23 24 25 26 27 28 29 30 31 32 33 34 35 36 37 38 39 40 41 42 43 44 45 46 47 48 49 50
000
ASUS43 KMPX 300610
RWRMN
WEATHER ROUNDUP FOR MINNESOTA
NATIONAL WEATHER SERVICE TWIN CITIES/CHANHASSEN MN
100 AM CDT WED JUL 30 2014


NOTE: "FAIR" INDICATES FEW OR NO CLOUDS BELOW 12,000 FEET WITH NO
SIGNIFICANT WEATHER AND/OR OBSTRUCTIONS TO VISIBILITY. N/A MEANS
CURRENT SKY AND/OR WEATHER CONDITIONS ARE NOT AVAILABLE.

MNZ060>063-068>070-300700-
   Twin Cities Metro

CITY           SKY/WX    TMP DP  RH WIND       PRES   REMARKS
TWIN CITIES    PTCLDY    67  56  67 CALM      30.07R
6HR MIN TEMP:  67; 6HR MAX TEMP:  78;

ST PAUL        PTCLDY    62  60  93 E3        30.07R
CRYSTAL        CLEAR     66  54  65 N6        30.05S
BLAINE         PTCLDY    63  59  88 CALM      30.07S
LAKEVILLE      CLEAR     59  55  88 CALM      30.07S
EDEN PRAIRIE   CLEAR     65  56  72 NW5       30.05F
6HR MIN TEMP:  64; 6HR MAX TEMP:  78;

SOUTH ST PAUL  CLEAR     63  58  84 CALM      30.06S
LAKE ELMO      FAIR      59  55  88 S6        30.07F
$$
MNZ001>005-007-008-013>017-022>024-027-028-300700-
   Northwest Minnesota

CITY           SKY/WX    TMP DP  RH WIND       PRES   REMARKS
BEMIDJI        CLEAR     56  53  90 NW6       30.09S
HALLOCK        CLEAR     59  55  88 CALM      30.10S
ROSEAU         CLEAR     61  55  82 W7        30.09R
WARROAD        CLEAR     61  54  77 W7        30.08S
THIEF RVR FALL CLEAR     61  55  82 CALM      30.11R
CROOKSTON      CLEAR     59  55  88 NW3       30.11S
FOSSTON        CLEAR     54  46  76 CALM      30.11S
DETROIT LAKES  CLEAR     61  55  82 CALM      30.13S
MOORHEAD       CLEAR     61  59  94 CALM      30.12S
PARK RAPIDS    CLEAR     55  53  93 W6        30.10S
$$
MNZ006-009>011-018-025>026-300700-
   North Central Minnesota

CITY           SKY/WX    TMP DP  RH WIND       PRES   REMARKS
BAUDETTE       CLEAR     61  55  81 W3        30.07S
FLAG ISLAND    CLEAR     66  57  72 W8        30.05S
INTL FALLS     PTCLDY    52  51  97 CALM      30.06S
6HR MIN TEMP:  52; 6HR MAX TEMP:  67; 6HR PCP: TRACE;

WASKISH        CLEAR     64  55  72 NW6       30.07S
BIG FORK       PTCLDY    55  54  94 W1        30.08S
LONGVILLE      PTCLDY    59  57  94 CALM      30.08R
GRAND RAPIDS     N/A     57  55  94 CALM      30.08R VSB 3/4
CRANE LAKE     CLEAR     50  50 100 CALM      30.08S FOG
ORR            PTCLDY    54  52  94 CALM      30.05S FOG
COOK           CLEAR     52  52 100 CALM      30.07S
$$
MNZ012-019>021-037-300700-
   Northeast Minnesota

CITY           SKY/WX    TMP DP  RH WIND       PRES   REMARKS
DULUTH         CLEAR     57  53  86 N5        30.06S
6HR MIN TEMP:  56; 6HR MAX TEMP:  67; 6HR PCP:  0.24;

ELY            CLOUDY    48  48 100 CALM      30.07S FOG
HIBBING        PTCLDY    53  50  89 CALM      30.06F
EVELETH        FOG       52  52 100 CALM      30.08S VSB 1/2
DULUTH HARBOR  CLEAR     57  55  94 SW3       30.06R
TWO HARBORS    CLEAR     52  46  82 CALM      30.04R HAZE
SILVER BAY     CLEAR     48  48 100 CALM      30.05R
GRAND MARAIS     N/A     51  49  92 CALM      30.05R
G MARAIS ARPRT CLEAR     46  45  93 NW3       30.08S
$$
MNZ029>031-032-039>041-046>048-054>057-064-300700-
   West Central Minnesota

CITY           SKY/WX    TMP DP  RH WIND       PRES   REMARKS
FERGUS FALLS   CLEAR     61  54  77 NE3       30.12S
WHEATON        CLEAR     57  55  94 SW3       30.14S
MORRIS         CLEAR     55  55 100 W3        30.11S
ALEXANDRIA     CLEAR     61  55  81 N3        30.13S
ELBOW LAKE     FAIR      62  56  80 CALM      30.12S
WADENA         CLEAR     57  55  94 CALM      30.11S
GLENWOOD       CLEAR     61  54  77 NW6       30.12S
APPLETON       CLEAR     59  55  88 CALM      30.11S
BENSON         FOG       54  54 100 CALM      30.11S VSB 1
ORTONVILLE     CLEAR     61  55  82 CALM      30.12S
MADISON        CLEAR     59  55  88 W6        30.12S
WILLMAR        FAIR      59  54  82 CALM      30.12S
$$
MNZ033>034-036-042>043-049>051-058-059-300700-
   Central Minnesota

CITY           SKY/WX    TMP DP  RH WIND       PRES   REMARKS
ST CLOUD       CLEAR     61  54  77 CALM      30.08S
6HR MIN TEMP:  61; 6HR MAX TEMP:  77;

SAUK CENTRE    FAIR      58  54  85 CALM      30.11S
PAYNESVILLE    CLEAR     52  52  98 SW3       30.11S
AITKIN         CLEAR     57  52  82 CALM      30.07S HAZE
PINE RIVER     CLEAR     57  55  94 CALM      30.12S
BRAINERD       CLEAR     63  55  75 NW5       30.09S
STAPLES        CLEAR     55  54  94 W3        30.10S
LONG PRAIRIE   FAIR      59  54  82 NW3       30.11S
LITTLE FALLS   CLEAR     61  54  77 CALM      30.09S
LITCHFIELD       N/A     64  59  82 NW3       30.10S
BUFFALO        CLEAR     64  54  70 NW3       30.08F
MAPLE LAKE     CLEAR     63  56  80 NW3       30.09S
$$
MNZ037-044-045-052-053-300700-
   East Central Minnesota

CITY           SKY/WX    TMP DP  RH WIND       PRES   REMARKS
PRINCETON      CLEAR     55  54  94 CALM      30.08S
MORA           PTCLDY    59  54  82 CALM      30.09F
CAMBRIDGE      CLEAR     57  50  77 CALM      30.06S
RUSH CITY      PTCLDY    59  55  88 CALM      30.08R
MOOSE LAKE     CLEAR     55  54  94 CALM      30.05S FOG
HINCKLEY       FAIR      59  57  94 CALM      30.07F
CLOQUET        PTCLDY    55  54  94 CALM      30.06S
MCGREGOR       PTCLDY    59  57  94 CALM      30.07F
$$
MNZ071>073-080-081-089-090-097-098-300700-
   Southwest Minnesota

CITY           SKY/WX    TMP DP  RH WIND       PRES   REMARKS
MONTEVIDEO     CLEAR     61  54  77 NW5       30.12S
GRANITE FALLS  CLEAR     56  53  90 W5        30.13S
CANBY          CLEAR     58  54  86 W5        30.14S
MARSHALL       CLEAR     57  52  82 W3        30.11S
REDWOOD FALLS  CLEAR     62  55  77 W6        30.10S
OLIVIA         CLEAR     59  54  82 NW5       30.10S
PIPESTONE      CLEAR     57  54  88 CALM      30.15S
WINDOM         CLEAR     57  54  88 W3        30.13S
WORTHINGTON    CLEAR     55  52  88 W3        30.15S
JACKSON        CLEAR     55  52  88 W3        30.13S
TRACY          CLEAR     60  53  79 W3        30.13S
SLAYTON        CLEAR     55  53  95 CALM      30.15S
$$
MNZ065>067-074>077-082>085-091>093-300700-
   South Central Minnesota

CITY           SKY/WX    TMP DP  RH WIND       PRES   REMARKS
MANKATO        CLEAR     63  52  67 NW5       30.09S
NEW ULM        CLEAR     57  55  94 W7        30.10S
ST JAMES       CLEAR     57  54  88 W3        30.11F
FAIRMONT       CLEAR     59  52  77 NW6       30.11S
GLENCOE        CLEAR     61  55  79 CALM      30.08S
FARIBAULT      CLEAR     59  54  82 CALM      30.08S
OWATONNA       CLEAR     57  54  88 CALM      30.08F
WASECA         CLEAR     55  50  82 NW5       30.10F
ALBERT LEA     PTCLDY    63  55  77 W3        30.09S
$$
MNZ078>079-086>088-094>096-300700-
   Southeast Minnesota

CITY           SKY/WX    TMP DP  RH WIND       PRES   REMARKS
ROCHESTER      CLOUDY    62  57  83 W6        30.09F
6HR MIN TEMP:  62; 6HR MAX TEMP:  74; 6HR PCP:  0.16;

RED WING       CLEAR     57  57 100 CALM      30.05S
STANTON        CLEAR     60  57  88 CALM      30.06S
DODGE CENTER   PTCLDY    59  57  94 SW6       30.08F
WINONA         CLEAR     61  55  82 CALM      30.05S
AUSTIN         CLEAR     61  55  82 CALM      30.09S
PRESTON        LGT RAIN  62  61  98 CALM      30.08F
$$
ABBREVIATIONS USED IN REMARKS
   TC - TEMPERATURES IN CELSIUS
  WCI - WIND CHILL INDEX
   HX - HEAT INDEX
  VSB - VISIBILITY
$$


USA.gov is the U.S. government's official web portal to all federal, state and local government web resources and services.